Regional Weather Roundup
Issued by NWS

Home | Current Version | Previous Version | Text Only | Print | Product List | Glossary Off
Versions: 1 2 3 4 5 6 7 8 9 10 11 12 13 14 15 16 17 18 19 20 21 22 23 24 25 26 27 28 29 30 31 32 33 34 35 36 37 38 39 40 41 42 43 44 45 46 47 48

000
ASUS45 KCYS 251110
RWRWY

WYOMING REGIONAL WEATHER ROUNDUP
NATIONAL WEATHER SERVICE CHEYENNE WY
400 AM MST THU DEC 25 2014

NOTE:  "FAIR" INDICATES FEW OR NO CLOUDS BELOW 12,000 FEET
WITH NO SIGNIFICANT WEATHER AND/OR OBSTRUCTIONS TO VISIBILITY.

WYZ001-251200-
YELLOWSTONE NATIONAL PARK

CITY           SKY/WX    TMP DP  RH WIND       PRES   REMARKS
LK YELLOWSTONE   N/A     21  17  84 VRB5      29.37F WCI  15
W YELLOWSTONE  NOT AVBL

$$
WYZ002>013-054>058-071-098>099-251200-
NORTHERN WYOMING

CITY           SKY/WX    TMP DP  RH WIND       PRES   REMARKS
JACKSON        CLOUDY    27  27 100 CALM      29.34F
CODY           CLOUDY    27  23  86 N18G28    29.50R WCI  13
GREYBULL       LGT SNOW  30  29  96 N8        29.45S FOG     WCI  22
WORLAND        LGT SNOW  23  21  92 S7        29.46R VSB 1   WCI  15
SHERIDAN       LGT SNOW  30  27  88 N12       29.58R FOG     WCI  20
BUFFALO        LGT SNOW  27  26  96 N15       29.52R VSB 3/4 WCI  15
GILLETTE       LGT SNOW  29  27  92 N16       29.48S FOG     WCI  17
HULETT           N/A    N/A N/A N/A MISG        N/A
NEWCASTLE      FAIR      28  23  80 CALM      29.43S

$$
WYZ014>020-022>026-101>103-251200-
CENTRAL WYOMING

CITY           SKY/WX    TMP DP  RH WIND       PRES   REMARKS
BIG PINEY      MOCLDY    23  20  88 SW3       29.35F
PINEDALE       LGT SNOW  28  28 100 SE8       29.36S WCI  20
DUBOIS         NOT AVBL
LANDER         CLOUDY    25  18  74 CALM      29.36R
RIVERTON       CLOUDY    26  19  74 NE9       29.36F WCI  17
CASPER         LGT SNOW  30  26  85 NW10      29.43R FOG     WCI  21
DOUGLAS        LGT SNOW  32  30  92 N7        29.45S FOG     WCI  26

$$
WYZ021-027>030-104>119-251200-
SOUTHERN WYOMING

CITY           SKY/WX    TMP DP  RH WIND       PRES   REMARKS
EVANSTON       CLOUDY    27  26  96 SW16      29.38F WCI  15
KEMMERER       CLOUDY    28  27  93 SW13      29.35F WCI  18
FORT BRIDGER   PTSUNNY   31  28  89 W16G22    29.40S WCI  20
ROCK SPRINGS   LGT SNOW  27  18  69 SE6       29.39S WCI  20
DIXON          CLOUDY    32  23  69 CALM      29.50F
RAWLINS        FAIR      28  21  75 SW29G45   29.39F WCI  12
SARATOGA       PTSUNNY   32  23  69 SE13      29.43F WCI  22
LARAMIE        FAIR      31  18  58 SW20G26   29.39F WCI  19
CHEYENNE       FAIR      28  18  66 CALM      29.39F
TORRINGTON     CLOUDY    35  25  66 E6        29.41S WCI  30
PINE BLUFFS    PTSUNNY   30  23  74 CALM      29.41S

$$


USA.gov is the U.S. government's official web portal to all federal, state and local government web resources and services.